カタログに戻る

DMSP 5D-2 F13 DEB

運用中SSO
NORAD 40611·DEBRIS·🇺🇸 United States

打ち上げ Mar 24, 1995 から Vandenberg Space Force Base

Loading…

次のパス (今後24時間)

TLE

最新Source: Space-Track

元期: Sep 13, 2026, 13:17 UTC

1 40611U 95015FJ  26256.55403992  .00002831  00000-0  93940-3 0  9992
2 40611  98.7672 296.2092 0026838 224.7475 135.1546 14.38402519591176

AllMySatでDMSP 5D-2 F13 DEBをリアルタイム追跡

Download on the App Store